Time,TemperatureF,DewpointF,PressureIn,WindDirection,WindDirectionDegrees,WindSpeedMPH,WindSpeedGustMPH,Humidity,HourlyPrecipIn,Conditions,Clouds,dailyrainin,SolarRadiationWatts/m^2,SoftwareType,DateUTC
2013-03-25 00:15:00,23.4,14.0,30.67,East,88,0.0,1.0,67,0.00,CLR,SKC,0.00,0.0,WeatherDisplay:10.37,2013-03-25 06:15:00,
2013-03-25 00:45:00,24.0,13.6,30.67,East,88,0.0,1.0,64,0.00,CLR,SKC,0.00,0.0,WeatherDisplay:10.37,2013-03-25 06:45:00,
2013-03-25 01:15:00,22.5,12.8,30.67,East,88,0.0,1.0,66,0.00,CLR,SKC,0.00,0.0,WeatherDisplay:10.37,2013-03-25 07:15:00,
2013-03-25 01:45:00,22.4,13.4,30.68,East,88,0.0,0.0,68,0.00,CLR,SKC,0.00,0.0,WeatherDisplay:10.37,2013-03-25 07:45:00,
2013-03-25 02:15:00,23.3,12.6,30.67,East,88,0.0,0.0,63,0.00,CLR,SKC,0.00,0.0,WeatherDisplay:10.37,2013-03-25 08:15:00,
2013-03-25 02:45:00,22.9,12.5,30.67,East,88,0.0,1.0,64,0.00,CLR,SKC,0.00,0.0,WeatherDisplay:10.37,2013-03-25 08:45:00,
2013-03-25 03:15:00,21.1,12.2,30.66,East,88,0.0,0.0,68,0.00,CLR,SKC,0.00,0.0,WeatherDisplay:10.37,2013-03-25 09:15:00,
2013-03-25 03:45:00,20.3,12.4,30.65,East,88,0.0,1.0,71,0.00,CLR,SKC,0.00,0.0,WeatherDisplay:10.37,2013-03-25 09:45:00,
2013-03-25 04:15:00,19.5,12.3,30.66,East,88,0.0,1.0,73,0.00,CLR,SKC,0.00,0.0,WeatherDisplay:10.37,2013-03-25 10:15:00,
2013-03-25 04:45:00,20.4,12.2,30.66,East,88,0.0,2.0,70,0.00,CLR,SKC,0.00,0.0,WeatherDisplay:10.37,2013-03-25 10:45:00,
2013-03-25 05:15:00,19.8,12.2,30.66,East,88,1.0,3.0,72,0.00,CLR,SKC,0.00,0.0,WeatherDisplay:10.37,2013-03-25 11:15:00,
2013-03-25 05:45:00,20.1,12.2,30.67,East,88,0.0,1.0,71,0.00,CLR,SKC,0.00,0.0,WeatherDisplay:10.37,2013-03-25 11:45:00,
2013-03-25 06:15:00,19.8,11.6,30.67,ENE,78,0.0,1.0,70,0.00,CLR,SKC,0.00,0.0,WeatherDisplay:10.37,2013-03-25 12:15:00,
2013-03-25 06:45:00,20.7,11.8,30.67,ENE,76,1.0,4.0,68,0.00,CLR,SKC,0.00,0.0,WeatherDisplay:10.37,2013-03-25 12:45:00,
2013-03-25 07:15:00,20.6,11.3,30.68,ENE,67,2.0,4.0,67,0.00,OVC,SKC,0.00,0.0,WeatherDisplay:10.37,2013-03-25 13:15:00,
2013-03-25 07:45:00,20.5,11.7,30.68,ENE,78,0.0,1.0,68,0.00,BKN,SKC,0.00,19.0,WeatherDisplay:10.37,2013-03-25 13:45:00,
2013-03-25 08:15:00,22.0,13.7,30.69,ENE,78,0.0,1.0,70,0.00,CLR,SKC,0.00,125.0,WeatherDisplay:10.37,2013-03-25 14:15:00,
2013-03-25 08:45:00,28.2,15.7,30.69,ENE,78,0.0,1.0,59,0.00,CLR,SKC,0.00,297.0,WeatherDisplay:10.37,2013-03-25 14:45:00,
2013-03-25 09:15:00,28.0,14.3,30.69,NNW,338,2.0,4.0,56,0.00,CLR,SKC,0.00,250.0,WeatherDisplay:10.37,2013-03-25 15:15:00,
2013-03-25 09:45:00,29.6,14.6,30.69,North,5,2.0,3.0,53,0.00,CLR,SKC,0.00,397.0,WeatherDisplay:10.37,2013-03-25 15:45:00,
2013-03-25 10:15:00,32.9,13.9,30.69,WNW,291,1.0,4.0,45,0.00,CLR,SKC,0.00,554.0,WeatherDisplay:10.37,2013-03-25 16:15:00,
2013-03-25 10:45:00,34.9,14.1,30.69,WSW,252,1.0,3.0,42,0.00,CLR,SKC,0.00,624.0,WeatherDisplay:10.37,2013-03-25 16:45:00,
2013-03-25 11:15:00,36.4,14.9,30.69,East,81,0.0,2.0,41,0.00,CLR,SKC,0.00,705.0,WeatherDisplay:10.37,2013-03-25 17:15:00,
2013-03-25 11:45:00,38.6,13.9,30.68,WNW,294,2.0,5.0,36,0.00,CLR,SKC,0.00,775.0,WeatherDisplay:10.37,2013-03-25 17:45:00,
2013-03-25 12:15:00,41.1,14.8,30.66,SSW,209,1.0,5.0,34,0.00,CLR,SKC,0.00,840.0,WeatherDisplay:10.37,2013-03-25 18:15:00,
2013-03-25 12:45:00,43.6,18.3,30.65,WSW,243,0.0,7.0,36,0.00,FEW,SKC,0.00,668.0,WeatherDisplay:10.37,2013-03-25 18:45:00,
2013-03-25 13:15:00,44.3,18.3,30.64,SSW,196,2.0,5.0,35,0.00,CLR,SKC,0.00,782.0,WeatherDisplay:10.37,2013-03-25 19:15:00,
2013-03-25 13:45:00,43.6,17.1,30.62,South,189,1.0,3.0,34,0.00,SCT,SKC,0.00,494.0,WeatherDisplay:10.37,2013-03-25 19:45:00,
2013-03-25 14:15:00,45.8,17.6,30.61,SE,125,2.0,4.0,32,0.00,SCT,SKC,0.00,591.0,WeatherDisplay:10.37,2013-03-25 20:15:00,
2013-03-25 14:45:00,47.7,17.7,30.59,SW,225,2.0,9.0,30,0.00,CLR,SKC,0.00,846.0,WeatherDisplay:10.37,2013-03-25 20:45:00,
2013-03-25 15:15:00,46.7,17.6,30.58,SW,229,3.0,8.0,31,0.00,CLR,SKC,0.00,599.0,WeatherDisplay:10.37,2013-03-25 21:15:00,
2013-03-25 15:45:00,47.3,18.1,30.57,SSW,203,2.0,4.0,31,0.00,CLR,SKC,0.00,585.0,WeatherDisplay:10.37,2013-03-25 21:45:00,
2013-03-25 16:15:00,47.3,21.0,30.56,SSW,207,7.0,10.0,35,0.00,CLR,SKC,0.00,504.0,WeatherDisplay:10.37,2013-03-25 22:15:00,
2013-03-25 16:45:00,46.6,22.3,30.56,NE,53,3.0,8.0,38,0.00,CLR,SKC,0.00,517.0,WeatherDisplay:10.37,2013-03-25 22:45:00,
2013-03-25 17:15:00,47.8,22.1,30.55,NW,318,1.0,3.0,36,0.00,SCT,SKC,0.00,230.0,WeatherDisplay:10.37,2013-03-25 23:15:00,
2013-03-25 17:45:00,47.2,21.6,30.54,SSW,202,2.0,9.0,36,0.00,FEW,SKC,0.00,207.0,WeatherDisplay:10.37,2013-03-25 23:45:00,
2013-03-25 18:15:00,46.9,20.7,30.54,South,173,1.0,3.0,35,0.00,SCT,SKC,0.00,141.0,WeatherDisplay:10.37,2013-03-26 00:15:00,
2013-03-25 18:45:00,46.9,21.9,30.53,South,176,1.0,2.0,37,0.00,SCT,SKC,0.00,76.0,WeatherDisplay:10.37,2013-03-26 00:45:00,
2013-03-25 19:15:00,46.6,21.0,30.52,South,176,0.0,0.0,36,0.00,SCT,SKC,0.00,23.0,WeatherDisplay:10.37,2013-03-26 01:15:00,
2013-03-25 19:45:00,46.1,21.9,30.52,South,176,0.0,2.0,38,0.00,OVC,SKC,0.00,0.0,WeatherDisplay:10.37,2013-03-26 01:45:00,
2013-03-25 20:15:00,41.8,24.0,30.52,SSE,164,2.0,4.0,49,0.00,CLR,SKC,0.00,0.0,WeatherDisplay:10.37,2013-03-26 02:15:00,
2013-03-25 20:45:00,39.7,24.0,30.51,SE,144,1.0,3.0,53,0.00,CLR,SKC,0.00,0.0,WeatherDisplay:10.37,2013-03-26 02:45:00,
2013-03-25 21:15:00,39.2,23.9,30.51,SE,144,1.0,4.0,54,0.00,CLR,SKC,0.00,0.0,WeatherDisplay:10.37,2013-03-26 03:15:00,
2013-03-25 21:45:00,38.0,23.7,30.51,SE,131,3.0,5.0,56,0.00,CLR,SKC,0.00,0.0,WeatherDisplay:10.37,2013-03-26 03:45:00,
2013-03-25 22:15:00,36.8,23.8,30.51,ESE,121,0.0,1.0,59,0.00,CLR,SKC,0.00,0.0,WeatherDisplay:10.37,2013-03-26 04:15:00,
2013-03-25 22:45:00,36.9,23.9,30.51,ESE,121,0.0,0.0,59,0.00,CLR,SKC,0.00,0.0,WeatherDisplay:10.37,2013-03-26 04:45:00,
2013-03-25 23:15:00,34.6,23.3,30.50,ESE,121,1.0,3.0,63,0.00,CLR,SKC,0.00,0.0,WeatherDisplay:10.37,2013-03-26 05:15:00,
2013-03-25 23:45:00,36.7,23.7,30.49,ESE,104,2.0,5.0,59,0.00,CLR,SKC,0.00,0.0,WeatherDisplay:10.37,2013-03-26 05:45:00,